SCP
0 0 0 0 0 0 0 0 0 0 0 0 0 0 0 0 0 0 0 0 0 0 0 0 0 0 0 0 0 0 0 0
0 0 0 0 0 0 0 0 0 0 0 0 0 0 0 0 0 0 0 0 0 0 0 0 0 0 0 0 0 0 0 0
-0 -0 -0 0 0 0 0 0 0 0 0 0 0 0 0 0 0 0 0 0 0 0 0 0 0 0 0 0 0 0 0 0
-0 -0 -0 -0 0 0 0 0 0 0 0 0 0 0 0 0 0 0 0 0 0 0 0 0 0 0 0 0 0 0 0 0
0 0 0 0 0 -0 -0 0 0 0 0 0 0 0 0 0 0 0 0 0 0 0 0 0 0 0 0 0 0 0 0 0
0 0 0 0 0 0 0 -0 0 0 0 0 0 0 0 0 0 0 0 0 0 0 0 0 0 0 0 0 0 0 0 0
0 0 0 0 0 0 0 0 0 0 0 0 0 0 0 0 0 0 0 0 0 0 0 0 0 0 0 0 0 0 0 0
0 0 0 0 -0 -0 0 0 0 0 0 0 0 0 0 0 0 0 0 0 0 0 0 0 0 0 0 0 0 0 0 0
0 0 0 -0 -0 -0 -0 -0 -0 -0 -0 -0 0 0 0 0 0 0 0 0 0 0 0 0 0 0 0 0 0 0 0 0
-0 -0 -0 -0 -0 -0 -0 -0 -0 -0 -0 -0 -0 0 0 0 0 0 0 0 0 0 0 0 0 0 0 0 0 0 0 0
-0 -0 -0 -0 -0 -0 -0 -0 -0 -0 -0 -0 -0 -0 0 0 0 0 0 0 0 0 0 0 0 0 0 0 0 0 0 0
-0 -0 -0 -0 -0 -0 -0 -0 -0 -0 -0 -0 -0 -0 -0 0 0 0 0 0 0 0 0 0 0 0 0 0 0 0 0 0
-0 -0 -0 -0 -0 -0 -0 -0 -0 -0 -0 -0 -0 -0 -0 -0 0 0 0 0 0 0 0 0 0 0 0 0 0 0 0 0
-0 -0 0 0 0 -0 -0 -0 -0 -0 -0 -0 -0 -0 -0 -0 0 0 0 0 0 0 0 0 0 0 0 0 0 0 0 0
0 0 0 0 0 0 0 0 -0 -0 -0 -0 -0 -0 -0 0 0 0 0 0 0 0 0 0 0 0 0 0 0 0 0 0
0 0 0 0 0 0 0 0 0 0 -0 -0 -0 -0 -0 0 0 0 0 0 0 0 0 0 0 0 0 0 0 0 0 0
0 0 0 0 0 0 0 0 0 0 -0 -0 -0 -0 -0 0 0 0 0 0 0 0 0 0 0 0 0 0 0 0 0 0
0 0 0 0 0 0 0 0 0 0 0 0 -0 -0 -0 -0 0 0 0 0 0 0 0 0 0 0 0 0 0 0 0 0
0 0 0 0 0 0 0 0 0 0 0 0 0 0 0 0 0 0 0 0 0 0 0 0 0 0 0 0 0 0 0 0
0 0 0 0 0 0 0 0 0 0 0 0 0 0 0 0 0 0 0 0 0 0 0 0 0 0 0 0 0 0 0 0
Wind_Speed_500mb
63 57 48 40 26 24 26 31 30 39 52 66 84 96 98 108 117 117 113 107 106 106 107 111 107 103 107 111 110 111 112 112
68 66 63 53 41 38 41 44 47 44 44 49 61 81 94 102 108 112 110 111 111 109 107 110 110 105 106 110 109 113 113 112
65 57 48 41 40 39 41 42 48 54 54 55 49 56 73 89 105 105 108 110 112 111 110 108 110 107 106 110 111 112 113 111
47 47 47 48 50 49 49 48 44 44 42 49 57 58 63 73 84 96 106 110 108 110 111 111 112 105 108 112 110 112 114 111
49 60 59 62 62 63 58 58 59 58 56 56 53 54 66 67 69 79 93 105 106 111 108 108 111 112 113 113 109 110 111 111
65 69 72 72 74 71 68 70 75 70 70 67 65 60 60 63 69 70 77 89 96 99 103 104 111 114 116 114 112 110 111 112
71 76 82 85 85 84 85 82 81 81 75 70 66 67 63 65 65 71 69 74 85 97 100 100 107 111 109 111 110 112 116 115
79 80 85 89 89 92 93 92 87 85 82 76 71 72 71 67 66 69 70 72 77 86 95 104 108 108 105 106 107 113 117 115
80 84 89 92 92 95 95 96 93 89 86 83 77 75 75 76 74 72 71 75 78 83 90 99 108 108 105 101 97 103 114 116
74 84 88 90 95 99 99 99 97 96 93 88 85 80 77 78 81 78 75 76 80 84 87 95 101 101 102 99 99 99 107 117
84 86 89 92 91 96 100 99 100 98 99 96 88 87 83 77 78 84 83 85 85 89 85 84 92 96 98 93 93 102 98 114
83 87 89 93 96 97 98 96 97 100 100 99 93 89 87 84 78 77 86 90 91 92 91 88 84 85 91 92 93 99 105 110
83 83 83 85 89 94 94 94 93 97 97 97 94 89 88 87 82 78 75 82 89 90 95 91 89 84 86 83 87 96 101 100
75 80 79 79 80 88 90 90 91 92 96 93 92 89 83 84 85 80 75 74 79 83 90 93 88 87 79 81 86 90 95 98
69 73 79 76 75 75 81 84 86 88 88 87 84 87 83 80 79 82 77 75 75 75 81 84 82 82 78 67 76 87 93 96
61 67 71 74 71 70 74 77 81 83 80 79 78 74 79 78 77 77 75 66 71 73 72 73 79 77 66 55 61 78 89 91
55 59 66 70 69 68 68 73 77 77 75 73 74 74 73 76 85 76 72 65 58 58 64 75 78 72 66 55 54 64 78 86
53 58 61 65 67 66 66 69 71 71 68 67 67 68 68 68 71 82 81 67 56 52 51 54 64 69 64 56 54 61 64 87
48 54 58 61 64 66 67 68 66 66 65 65 63 61 60 60 62 64 63 69 64 49 45 44 43 46 52 52 50 63 73 82
45 49 53 58 62 66 68 69 67 68 68 67 63 58 55 54 52 53 55 52 50 52 44 40 36 40 41 40 52 60 69 77
Wind_Direction_500mb
12 13 19 16 19 9 357 324 316 294 273 268 266 265 266 265 263 262 264 260 258 264 263 262 258 255 253 252 252 252 253 252
343 339 342 340 342 337 333 327 325 327 316 289 279 272 265 264 264 264 265 264 261 262 264 263 262 260 255 253 253 252 252 253
342 338 345 341 339 337 329 326 323 324 320 321 304 287 276 272 268 267 266 264 263 261 262 264 263 263 260 256 254 252 252 253
354 359 355 349 345 337 335 328 320 312 309 310 313 306 300 285 274 270 266 263 263 259 257 261 264 265 266 262 259 256 254 254
355 354 354 352 349 345 341 338 333 325 317 313 310 300 297 298 290 276 269 266 264 261 263 260 261 258 262 262 261 259 258 257
355 352 348 347 346 343 340 339 337 333 328 319 309 304 300 294 298 291 275 267 266 266 262 261 263 264 261 259 258 259 259 258
349 347 345 345 342 338 336 337 335 334 332 328 311 301 295 294 294 295 288 275 269 266 264 264 260 257 256 257 258 258 257 257
344 341 339 338 337 335 332 329 327 327 328 326 324 306 296 291 286 285 287 287 278 272 267 263 261 260 260 260 259 259 259 258
337 335 334 333 332 329 327 326 323 321 320 321 319 316 303 292 288 286 286 283 281 278 271 265 262 262 260 258 258 258 258 253
331 329 328 329 327 324 324 322 321 320 317 316 317 315 314 300 290 287 284 280 279 281 277 270 266 262 261 261 258 257 258 256
327 326 327 326 325 321 320 320 319 317 316 314 313 311 310 312 302 289 283 280 280 279 278 274 268 265 263 259 258 259 257 254
328 329 326 323 322 321 319 320 316 314 313 312 313 309 307 306 308 301 287 281 279 278 275 272 267 264 261 256 254 253 257 255
328 326 325 325 323 320 321 319 316 313 311 312 312 309 307 306 305 305 299 287 281 279 276 270 267 267 264 256 249 251 254 254
332 329 330 330 329 324 322 321 318 315 314 315 314 312 309 308 306 306 304 297 288 283 278 276 274 269 263 255 251 252 255 254
336 335 336 336 335 331 328 324 323 321 320 320 319 316 314 310 309 309 306 300 294 288 283 281 280 277 272 264 252 250 249 250
342 340 341 342 342 338 334 332 329 326 326 324 323 319 315 313 313 310 307 302 295 286 284 283 281 280 282 277 262 256 251 249
345 343 344 345 346 344 341 340 338 335 333 331 328 326 321 318 314 312 311 311 301 293 284 275 273 278 280 276 268 262 255 247
349 348 346 347 348 349 349 347 345 344 341 338 334 330 328 324 319 316 314 314 310 306 300 289 278 272 272 272 266 264 259 243
355 356 353 353 353 351 353 350 352 354 354 349 344 342 338 333 329 323 318 318 318 318 310 301 288 284 276 266 263 256 251 243
357 359 358 358 359 357 355 353 355 359 0 0 358 355 353 349 344 340 336 329 322 324 330 327 312 296 281 272 259 253 248 242
Wind_Speed_850mb
63 57 48 40 26 24 26 31 30 39 52 66 84 96 98 108 117 117 113 107 106 106 107 111 107 103 107 111 110 111 112 112
68 66 63 53 41 38 41 44 47 44 44 49 61 81 94 102 108 112 110 111 111 109 107 110 110 105 106 110 109 113 113 112
65 57 48 41 40 39 41 42 48 54 54 55 49 56 73 89 105 105 108 110 112 111 110 108 110 107 106 110 111 112 113 111
47 47 47 48 50 49 49 48 44 44 42 49 57 58 63 73 84 96 106 110 108 110 111 111 112 105 108 112 110 112 114 111
49 60 59 62 62 63 58 58 59 58 56 56 53 54 66 67 69 79 93 105 106 111 108 108 111 112 113 113 109 110 111 111
65 69 72 72 74 71 68 70 75 70 70 67 65 60 60 63 69 70 77 89 96 99 103 104 111 114 116 114 112 110 111 112
71 76 82 85 85 84 85 82 81 81 75 70 66 67 63 65 65 71 69 74 85 97 100 100 107 111 109 111 110 112 116 115
79 80 85 89 89 92 93 92 87 85 82 76 71 72 71 67 66 69 70 72 77 86 95 104 108 108 105 106 107 113 117 115
80 84 89 92 92 95 95 96 93 89 86 83 77 75 75 76 74 72 71 75 78 83 90 99 108 108 105 101 97 103 114 116
74 84 88 90 95 99 99 99 97 96 93 88 85 80 77 78 81 78 75 76 80 84 87 95 101 101 102 99 99 99 107 117
84 86 89 92 91 96 100 99 100 98 99 96 88 87 83 77 78 84 83 85 85 89 85 84 92 96 98 93 93 102 98 114
83 87 89 93 96 97 98 96 97 100 100 99 93 89 87 84 78 77 86 90 91 92 91 88 84 85 91 92 93 99 105 110
83 83 83 85 89 94 94 94 93 97 97 97 94 89 88 87 82 78 75 82 89 90 95 91 89 84 86 83 87 96 101 100
75 80 79 79 80 88 90 90 91 92 96 93 92 89 83 84 85 80 75 74 79 83 90 93 88 87 79 81 86 90 95 98
69 73 79 76 75 75 81 84 86 88 88 87 84 87 83 80 79 82 77 75 75 75 81 84 82 82 78 67 76 87 93 96
61 67 71 74 71 70 74 77 81 83 80 79 78 74 79 78 77 77 75 66 71 73 72 73 79 77 66 55 61 78 89 91
55 59 66 70 69 68 68 73 77 77 75 73 74 74 73 76 85 76 72 65 58 58 64 75 78 72 66 55 54 64 78 86
53 58 61 65 67 66 66 69 71 71 68 67 67 68 68 68 71 82 81 67 56 52 51 54 64 69 64 56 54 61 64 87
48 54 58 61 64 66 67 68 66 66 65 65 63 61 60 60 62 64 63 69 64 49 45 44 43 46 52 52 50 63 73 82
45 49 53 58 62 66 68 69 67 68 68 67 63 58 55 54 52 53 55 52 50 52 44 40 36 40 41 40 52 60 69 77
Wind_Direction_850mb
12 13 19 16 19 9 357 324 316 294 273 268 266 265 266 265 263 262 264 260 258 264 263 262 258 255 253 252 252 252 253 252
343 339 342 340 342 337 333 327 325 327 316 289 279 272 265 264 264 264 265 264 261 262 264 263 262 260 255 253 253 252 252 253
342 338 345 341 339 337 329 326 323 324 320 321 304 287 276 272 268 267 266 264 263 261 262 264 263 263 260 256 254 252 252 253
354 359 355 349 345 337 335 328 320 312 309 310 313 306 300 285 274 270 266 263 263 259 257 261 264 265 266 262 259 256 254 254
355 354 354 352 349 345 341 338 333 325 317 313 310 300 297 298 290 276 269 266 264 261 263 260 261 258 262 262 261 259 258 257
355 352 348 347 346 343 340 339 337 333 328 319 309 304 300 294 298 291 275 267 266 266 262 261 263 264 261 259 258 259 259 258
349 347 345 345 342 338 336 337 335 334 332 328 311 301 295 294 294 295 288 275 269 266 264 264 260 257 256 257 258 258 257 257
344 341 339 338 337 335 332 329 327 327 328 326 324 306 296 291 286 285 287 287 278 272 267 263 261 260 260 260 259 259 259 258
337 335 334 333 332 329 327 326 323 321 320 321 319 316 303 292 288 286 286 283 281 278 271 265 262 262 260 258 258 258 258 253
331 329 328 329 327 324 324 322 321 320 317 316 317 315 314 300 290 287 284 280 279 281 277 270 266 262 261 261 258 257 258 256
327 326 327 326 325 321 320 320 319 317 316 314 313 311 310 312 302 289 283 280 280 279 278 274 268 265 263 259 258 259 257 254
328 329 326 323 322 321 319 320 316 314 313 312 313 309 307 306 308 301 287 281 279 278 275 272 267 264 261 256 254 253 257 255
328 326 325 325 323 320 321 319 316 313 311 312 312 309 307 306 305 305 299 287 281 279 276 270 267 267 264 256 249 251 254 254
332 329 330 330 329 324 322 321 318 315 314 315 314 312 309 308 306 306 304 297 288 283 278 276 274 269 263 255 251 252 255 254
336 335 336 336 335 331 328 324 323 321 320 320 319 316 314 310 309 309 306 300 294 288 283 281 280 277 272 264 252 250 249 250
342 340 341 342 342 338 334 332 329 326 326 324 323 319 315 313 313 310 307 302 295 286 284 283 281 280 282 277 262 256 251 249
345 343 344 345 346 344 341 340 338 335 333 331 328 326 321 318 314 312 311 311 301 293 284 275 273 278 280 276 268 262 255 247
349 348 346 347 348 349 349 347 345 344 341 338 334 330 328 324 319 316 314 314 310 306 300 289 278 272 272 272 266 264 259 243
355 356 353 353 353 351 353 350 352 354 354 349 344 342 338 333 329 323 318 318 318 318 310 301 288 284 276 266 263 256 251 243
357 359 358 358 359 357 355 353 355 359 0 0 358 355 353 349 344 340 336 329 322 324 330 327 312 296 281 272 259 253 248 242